This is the latest recevied weather packets stored in our database for station/object KE4EST. If no packets are shown the sender has not sent any weather packets the latest 10 day(s).
| Time | Temp. | Humidity | Pressure | Rain* | Wind** | Luminosity | Snow |
|---|---|---|---|---|---|---|---|
| 1778104166 | 17.78° C | 99% | 1013.4 hPa | 0 mm | - | 22 W/m² | - |
| 1778103863 | 17.78° C | 99% | 1013.8 hPa | 0 mm | - | 18 W/m² | - |
| 1778103561 | 18.33° C | 99% | 1013.7 hPa | 0 mm | - | 18 W/m² | - |
| 1778103258 | 18.33° C | 99% | 1013.7 hPa | 0 mm | - | 22 W/m² | - |
| 1778102955 | 18.33° C | 99% | 1013.2 hPa | 0 mm | - | 31 W/m² | - |
| 1778102651 | 18.33° C | 99% | 1013.4 hPa | 0 mm | - | 48 W/m² | - |
| 1778102346 | 18.33° C | 99% | 1013.3 hPa | 0 mm | - | 48 W/m² | - |
| 1778102042 | 18.33° C | 99% | 1013.5 hPa | 1.27 mm | - | 49 W/m² | - |
| 1778101740 | 18.33° C | 99% | 1013.4 hPa | 1.27 mm | - | 75 W/m² | - |
| 1778101436 | 18.33° C | 99% | 1013.6 hPa | 0 mm | - | 65 W/m² | - |
| 1778101134 | 18.33° C | 99% | 1013.8 hPa | 0 mm | - | 27 W/m² | - |
| 1778100829 | 18.33° C | 99% | 1013.7 hPa | 0 mm | - | 16 W/m² | - |
| 1778100526 | 17.78° C | 99% | 1013.6 hPa | 1.78 mm | - | 39 W/m² | - |
| 1778100224 | 18.33° C | 99% | 1014.3 hPa | 3.05 mm | - | 48 W/m² | - |
| 1778099921 | 18.33° C | 99% | 1014.2 hPa | 7.11 mm | - | 92 W/m² | - |
| 1778099618 | 17.78° C | 99% | 1013.9 hPa | 13.72 mm | - | 91 W/m² | - |
| 1778099315 | 17.78° C | 99% | 1014.5 hPa | 11.94 mm | - | 17 W/m² | - |
| 1778099012 | 17.78° C | 99% | 1014.4 hPa | 6.6 mm | - | 8 W/m² | - |
| 1778098708 | 17.78° C | 99% | 1014.7 hPa | 3.05 mm | - | 11 W/m² | - |
| 1778098406 | 17.78° C | 99% | 1014.1 hPa | 4.32 mm | - | 30 W/m² | - |
| 1778098103 | 17.78° C | 99% | 1013.7 hPa | 10.67 mm | - | 26 W/m² | - |
| 1778097799 | 17.78° C | 99% | 1014.2 hPa | 15.49 mm | - | 11 W/m² | - |
| 1778097495 | 17.78° C | 99% | 1014.6 hPa | 10.67 mm | - | 7 W/m² | - |
| 1778097192 | 17.78° C | 99% | 1014.7 hPa | 6.1 mm | - | 4 W/m² | - |
| 1778096889 | 17.78° C | 99% | 1014.6 hPa | 4.32 mm | - | 7 W/m² | - |
* Rain latest hour (hover to see other rain measurements)
** Current wind speed in m/s (hover to see current wind gust speed)